Вернуться в каталог

STARLINK-5317

АктивенСвязьVLEO
NORAD 55283·PAYLOAD·🇺🇸 United States

Запущен Jan 19, 2023 с Vandenberg Space Force Base

Loading…

Ближайшие Пролёты (ближайшие 24 часа)

TLE

СвежийSource: CelesTrak SupGP

Эпоха: Sep 14, 2026, 22:24 UTC

1 55283C 23010Q   26257.93381944  .00074681  00000+0  62585-2 0  2572
2 55283  69.9989 287.2586 0003845 265.7091 105.4794 14.98291103    12

Отслеживайте STARLINK-5317 в реальном времени с AllMySat

Download on the App Store